OBJECT J, 67682

Orbit data source: Space-Track

You're viewing an Uncataloged Satellite

Recently launched and/or uncataloged satellites may have evolving metadata. Metadata may include but not limited to: Owner, Maufacturer, Bus, Motor, and Mission.

OBJECT J, 67682 is a satellite owned by VVKO VKS (CIS) in SSO that was launched on Thu, 05 Feb 2026 UTC via a SOYUZ-2-1B launch vehicle from the Plesetsk Missile And Space Complex (PKMTR). Unknown objects in Earth's orbit typically refer to objects detected orbiting the Earth but have not yet been identified or cataloged. These objects could be anything from previously untracked satellites, spent rocket stages, debris from satellite collisions, or even natural meteoroids temporarily captured by Earth's gravity.

Loading next visibility...
Identifier
67682, 2026-023J
Orbit
SSO
Country
Flag of CISCIS
Related business
Manufacturer
Unknown (RU)
Mission
Spacecraft
Bus & Motor
UNK, Unknown motor
Mass
~500 kg wet, ~500 kg dry
Launch date (UTC)
2026-02-05 (2 months ago)
Launch vehicle
SOYUZ-2-1B
Launch site
Plesetsk Missile And Space Complex (PKMTR)
Object type
Unknown
Shape & HBR
Unknown shape, 1.1 m
Radar Cross Section
RCS unknown

Expand to show TLE details & history
Last TLE update: 5 hours ago

TLE from 5 hours ago
0 OBJECT J
1 67682U 26023J   26104.17834579  .00005589  00000-0  23060-3 0  9990
2 67682  96.6298 175.5470 0021167 353.0413   7.0529 15.24178275 10248
Epoch: 2026-04-14T04:16Z
TLE epoch observation values (Epoch: 2026-04-14T04:16:49.076Z)
Latitude
-0.00004°
Longitude
-91.0158°
Altitude
481.934 km
Speed
7.632 km/s
True Right ascension
11h 42m 11s
True Declination
0° 00' 00"
Sunlit
Object was in full shadow at epoch
Visualization orbit readout
Latitude
Unknown
Longitude
Unknown
Altitude
Unknown
Speed
Unknown
Apparent Right ascension
Unknown
Apparent Declination
Unknown
Sunlit
N/A
Visualization observer readout
Local Sidereal Time
15:34:48
Azimuth
Unknown
Elevation
Unknown
Doppler factor
Unknown
Orbital elements
Apogee altitude
504.721 km
Perigee altitude
475.645 km
Semi-major axis
6,868.32 km
Eccentricity
0.00212
Inclination
96.6298°
RAAN
175.547°
Arg. of periapsis
353.0413°
True anomaly
7.08276°
Mean anomaly
7.0529°
Eccentric anomaly
7.06782°
Mean motion
3.81301 °/min
Orbital period
94.41 mins
BSTAR
0.0002306
Loading maneuver chart data...
Computing Atmospheric mass density...
Loading historical data...
Loading historical data...
Loading historical data...
Loading historical data...
Loading historical data...
Loading historical data...
Loading historical data...

Documentation

Showing up to 5 results
|